sat.trackr.live / text

‹ back to catalog

STARLINK-33862

NORAD 63709 · 2025-087N

PAYLOAD ACTIVE UNKNOWN

§ Identity

Operator
Country
US
Launch date
2025-04-28
Launch site
AFWTR
Launch vehicle
Mass (kg)
RCS (m²)

Purposes: comms

External: N2YO · Heavens-Above · Gunter

§ Orbital elements

Epoch: 2026-05-24T22:27:20.350944Z

Period
94.11 min
Inclination
53.1579°
Eccentricity
0.0001660
Mean motion
15.30203983 rev/d
Perigee alt
474.1 km
Apogee alt
476.3 km
Semi-major
6,853.3 km
B*
3.7116e-4
RAAN
225.3687°
Arg perigee
88.4577°
Mean anomaly
271.6614°
Rev number
6,087

§ Raw data

STARLINK-338621 63709U 25087N   26144.93565221  .00010651  00000+0  37116-3 0  99902 63709  53.1579 225.3687 0001660  88.4577 271.6614 15.30203983 60874

JSON: /api/v1/satellites/63709 · /tle

For live sub-satellite position, see the globe view (requires WebGL).

§ Visibility from observer

Set your observer location to see the next 7 days of passes ≥ 10°. The values pass through the URL so the page stays shareable.

No JS? Fill the form by hand. The geolocation button needs JavaScript.